When you browse on this site, cookies collect data to enhance your experience and personalize the content and advertising you see.
Visit our Privacy Policy to learn more. By continuing to use the site, you agree to this use of cookies and data.
  • En España
  • Lista de países
  • Para 7 días
  • Temperatura del agua
  • Mapa Satelital
  • El tiempo en el mapa
  • Informadores
  • user-avatar
    Iniciar sesión

    Tiempo cada hora Caltenco

    Hoy, 19 Febrero, Martes

    Tiempo Temperatura Precipitaciones Viento Presión Humedad
    00:00 +16°C° 0 mm 2 mps 598 mmHg 85%
    01:00 +15°C° 0 mm 2 mps 598 mmHg 88%
    02:00 +15°C° 0 mm 1 mps 597 mmHg 91%
    03:00 +14°C° 0 mm 1 mps 597 mmHg 91%
    04:00 +14°C° 0 mm 1 mps 597 mmHg 92%
    05:00 +13°C° 0 mm 1 mps 597 mmHg 93%
    06:00 +15°C° 0 mm 1 mps 598 mmHg 84%
    07:00 +16°C° 0 mm 1 mps 598 mmHg 74%
    08:00 +19°C° 0 mm 1 mps 599 mmHg 65%
    09:00 +19°C° 0 mm 3 mps 600 mmHg 56%
    10:00 +21°C° 0 mm 4 mps 600 mmHg 47%
    11:00 +23°C° 0 mm 5 mps 601 mmHg 38%
    12:00 +24°C° 0 mm 6 mps 600 mmHg 33%
    13:00 +24°C° 0 mm 6 mps 600 mmHg 28%
    14:00 +26°C° 0 mm 7 mps 599 mmHg 23%
    15:00 +24°C° 0 mm 6 mps 599 mmHg 24%
    16:00 +23°C° 0 mm 6 mps 598 mmHg 24%
    17:00 +22°C° 0 mm 5 mps 598 mmHg 25%
    18:00 +20°C° 0 mm 4 mps 598 mmHg 28%
    19:00 +18°C° 0 mm 2 mps 597 mmHg 31%
    20:00 +16°C° 0 mm 1 mps 597 mmHg 35%
    21:00 +16°C° 0 mm 1 mps 597 mmHg 36%
    22:00 +15°C° 0 mm 1 mps 596 mmHg 37%
    23:00 +14°C° 0 mm 1 mps 596 mmHg 38%

    Mañana, 20 Febrero, Miércoles

    Tiempo Temperatura Precipitaciones Viento Presión Humedad
    00:00 +14°C° 0 mm 1 mps 596 mmHg 41%
    01:00 +13°C° 0 mm 1 mps 595 mmHg 43%
    02:00 +11°C° 0 mm 0 mps 594 mmHg 46%
    03:00 +12°C° 0 mm 1 mps 594 mmHg 48%
    04:00 +11°C° 0 mm 1 mps 594 mmHg 50%
    05:00 +11°C° 0 mm 1 mps 594 mmHg 52%
    06:00 +13°C° 0 mm 1 mps 595 mmHg 46%
    07:00 +15°C° 0 mm 1 mps 596 mmHg 41%
    08:00 +18°C° 0 mm 1 mps 597 mmHg 36%
    09:00 +20°C° 0 mm 1 mps 598 mmHg 32%
    10:00 +21°C° 0 mm 2 mps 598 mmHg 29%
    11:00 +24°C° 0 mm 3 mps 599 mmHg 25%
    12:00 +23°C° 0 mm 4 mps 598 mmHg 24%
    13:00 +25°C° 0 mm 5 mps 598 mmHg 22%
    14:00 +26°C° 0 mm 6 mps 598 mmHg 21%
    15:00 +25°C° 0 mm 5 mps 597 mmHg 23%
    16:00 +23°C° 0 mm 5 mps 597 mmHg 25%
    17:00 +22°C° 0 mm 5 mps 597 mmHg 26%
    18:00 +20°C° 0 mm 4 mps 597 mmHg 31%
    19:00 +18°C° 0 mm 2 mps 596 mmHg 36%
    20:00 +16°C° 0 mm 1 mps 596 mmHg 41%
    21:00 +16°C° 0 mm 1 mps 596 mmHg 41%
    22:00 +15°C° 0 mm 1 mps 596 mmHg 41%
    23:00 +15°C° 0 mm 2 mps 597 mmHg 41%

    Pasado mañana, 21 Febrero, Jueves

    Tiempo Temperatura Precipitaciones Viento Presión Humedad
    00:00 +14°C° 0 mm 1 mps 596 mmHg 43%
    01:00 +13°C° 0 mm 1 mps 595 mmHg 44%
    02:00 +13°C° 0 mm 1 mps 595 mmHg 45%
    03:00 +12°C° 0 mm 1 mps 595 mmHg 49%
    04:00 +12°C° 0 mm 1 mps 595 mmHg 52%
    05:00 +10°C° 0 mm 0 mps 594 mmHg 55%
    06:00 +12°C° 0 mm 0 mps 596 mmHg 50%
    07:00 +14°C° 0 mm 0 mps 597 mmHg 46%
    08:00 +18°C° 0 mm 1 mps 598 mmHg 41%
    09:00 +19°C° 0 mm 2 mps 599 mmHg 35%
    10:00 +21°C° 0 mm 3 mps 599 mmHg 30%
    11:00 +23°C° 0 mm 4 mps 600 mmHg 24%
    12:00 +25°C° 0 mm 4 mps 599 mmHg 22%
    13:00 +25°C° 0 mm 5 mps 599 mmHg 20%
    14:00 +26°C° 0 mm 6 mps 598 mmHg 18%
    15:00 +25°C° 0 mm 5 mps 598 mmHg 20%
    16:00 +23°C° 0 mm 5 mps 598 mmHg 21%
    17:00 +22°C° 0 mm 5 mps 597 mmHg 23%
    18:00 +20°C° 0 mm 4 mps 597 mmHg 26%
    19:00 +18°C° 0 mm 2 mps 597 mmHg 30%
    20:00 +16°C° 0 mm 1 mps 597 mmHg 34%
    21:00 +16°C° 0 mm 1 mps 597 mmHg 35%
    22:00 +15°C° 0 mm 1 mps 597 mmHg 36%
    23:00 +14°C° 0 mm 0 mps 597 mmHg 37%

    22 Febrero, Viernes

    Tiempo Temperatura Precipitaciones Viento Presión Humedad
    00:00 +14°C° 0 mm 1 mps 596 mmHg 38%
    01:00 +13°C° 0 mm 1 mps 596 mmHg 39%
    02:00 +13°C° 0 mm 1 mps 595 mmHg 41%
    03:00 +12°C° 0 mm 1 mps 595 mmHg 43%
    04:00 +11°C° 0 mm 0 mps 595 mmHg 45%
    05:00 +10°C° 0 mm 0 mps 595 mmHg 47%
    06:00 +13°C° 0 mm 0 mps 597 mmHg 40%
    07:00 +15°C° 0 mm 0 mps 598 mmHg 34%
    08:00 +18°C° 0 mm 0 mps 600 mmHg 27%
    09:00 +22°C° 0 mm 1 mps 600 mmHg 24%
    10:00 +23°C° 0 mm 2 mps 601 mmHg 20%
    11:00 +25°C° 0 mm 3 mps 601 mmHg 16%
    12:00 +26°C° 0 mm 3 mps 601 mmHg 16%
    13:00 +27°C° 0 mm 4 mps 600 mmHg 16%
    14:00 +27°C° 0 mm 5 mps 600 mmHg 16%
    15:00 +26°C° 0 mm 5 mps 599 mmHg 18%
    16:00 +25°C° 0 mm 5 mps 599 mmHg 21%
    17:00 +23°C° 0 mm 5 mps 599 mmHg 24%
    18:00 +21°C° 0 mm 3 mps 599 mmHg 29%
    19:00 +19°C° 0 mm 2 mps 599 mmHg 34%
    20:00 +18°C° 0 mm 1 mps 598 mmHg 39%
    21:00 +18°C° 0 mm 1 mps 598 mmHg 40%
    22:00 +16°C° 0 mm 1 mps 598 mmHg 42%
    23:00 +16°C° 0 mm 1 mps 598 mmHg 43%

    23 Febrero, Sábado

    Tiempo Temperatura Precipitaciones Viento Presión Humedad
    00:00 +15°C° 0 mm 1 mps 597 mmHg 47%
    01:00 +14°C° 0 mm 1 mps 597 mmHg 50%
    02:00 +14°C° 0 mm 1 mps 596 mmHg 53%
    03:00 +13°C° 0 mm 1 mps 596 mmHg 57%
    04:00 +13°C° 0 mm 1 mps 596 mmHg 62%
    05:00 +12°C° 0 mm 1 mps 596 mmHg 67%
    06:00 +14°C° 0 mm 1 mps 598 mmHg 61%
    07:00 +15°C° 0 mm 0 mps 599 mmHg 55%
    08:00 +17°C° 0 mm 0 mps 600 mmHg 49%
    09:00 +21°C° 0 mm 1 mps 600 mmHg 43%
    10:00 +23°C° 0 mm 2 mps 601 mmHg 37%
    11:00 +24°C° 0 mm 3 mps 601 mmHg 31%
    12:00 +25°C° 0 mm 4 mps 601 mmHg 29%
    13:00 +26°C° 0 mm 5 mps 601 mmHg 27%
    14:00 +27°C° 0 mm 6 mps 600 mmHg 25%
    15:00 +26°C° 0 mm 6 mps 600 mmHg 27%
    16:00 +24°C° 0 mm 6 mps 600 mmHg 29%
    17:00 +23°C° 0 mm 6 mps 600 mmHg 30%
    18:00 +21°C° 0 mm 4 mps 600 mmHg 35%
    19:00 +20°C° 0 mm 2 mps 600 mmHg 39%
    20:00 +19°C° 0 mm 1 mps 600 mmHg 43%
    21:00 +19°C° 0 mm 1 mps 599 mmHg 44%
    22:00 +18°C° 0 mm 1 mps 599 mmHg 45%
    23:00 +17°C° 0 mm 2 mps 599 mmHg 46%

    24 Febrero, Domingo

    Tiempo Temperatura Precipitaciones Viento Presión Humedad
    00:00 +16°C° 0 mm 1 mps 599 mmHg 49%
    01:00 +15°C° 0 mm 1 mps 598 mmHg 52%
    02:00 +15°C° 0 mm 1 mps 597 mmHg 54%
    03:00 +14°C° 0 mm 1 mps 597 mmHg 55%
    04:00 +14°C° 0 mm 1 mps 598 mmHg 56%
    05:00 +14°C° 0 mm 1 mps 598 mmHg 57%
    06:00 +16°C° 0 mm 1 mps 599 mmHg 51%
    07:00 +19°C° 0 mm 1 mps 600 mmHg 45%
    08:00 +21°C° 0 mm 1 mps 601 mmHg 39%
    09:00 +22°C° 0 mm 1 mps 602 mmHg 35%
    10:00 +24°C° 0 mm 1 mps 602 mmHg 31%
    11:00 +26°C° 0 mm 1 mps 602 mmHg 27%
    12:00 +26°C° 0 mm 2 mps 602 mmHg 26%
    13:00 +27°C° 0 mm 3 mps 601 mmHg 24%
    14:00 +28°C° 0 mm 4 mps 601 mmHg 23%
    15:00 +27°C° 0 mm 5 mps 601 mmHg 28%
    16:00 +26°C° 0 mm 5 mps 600 mmHg 34%
    17:00 +25°C° 0 mm 5 mps 600 mmHg 39%
    18:00 +22°C° 0.1 mm 5 mps 600 mmHg 49%
    19:00 +20°C° 0.1 mm 4 mps 599 mmHg 59%
    20:00 +18°C° 0.1 mm 3 mps 599 mmHg 69%
    21:00 +18°C° 0 mm 3 mps 599 mmHg 71%
    22:00 +17°C° 0 mm 2 mps 599 mmHg 73%
    23:00 +16°C° 0 mm 2 mps 599 mmHg 75%
    Mostrar más